EHI
0 0 0 0 0 0 0 0 0 0 0 1 1 2 3 7 12 16 16 16 16 14 14 19 23 27 30 26 19 13 9 4 1 0 0 0 0 0 0 0 0 0 0 0
0 0 0 0 0 0 0 0 0 0 0 0 1 2 2 5 11 13 13 11 11 10 12 16 19 21 22 19 13 8 6 3 1 0 0 0 0 0 0 0 0 0 0 0
0 0 0 0 0 0 0 0 0 0 0 0 0 1 1 3 6 8 7 7 7 7 10 13 15 15 13 11 7 5 4 3 1 0 0 0 0 0 0 0 0 0 0 0
0 0 0 0 0 0 0 0 0 0 0 0 0 0 0 1 2 3 3 4 6 6 8 12 14 13 10 8 6 4 3 2 1 0 0 0 0 0 0 0 0 0 0 0
0 0 0 0 0 0 0 0 0 0 0 0 0 0 1 2 2 1 1 2 4 6 8 11 14 14 11 7 5 3 3 2 1 1 1 1 0 0 0 0 0 0 0 0
0 0 0 0 0 0 0 0 0 0 0 0 0 0 1 2 2 2 2 3 5 8 10 11 13 14 13 9 6 4 4 4 3 3 2 1 0 0 0 0 0 0 0 0
0 0 0 0 0 0 0 0 0 0 0 0 0 0 0 1 1 3 3 4 7 11 11 10 11 12 12 10 9 9 10 11 8 5 2 1 0 0 0 0 0 0 0 0
0 0 0 0 0 0 0 0 0 0 0 0 0 0 0 0 0 2 2 4 9 13 11 8 8 9 11 11 13 17 19 18 12 6 3 1 0 0 0 0 0 0 0 0
0 0 0 0 0 0 0 0 0 0 0 0 0 0 0 0 0 0 1 3 8 11 9 7 6 9 11 13 17 21 22 17 12 7 4 1 0 0 0 0 0 0 0 0
0 0 0 0 0 0 0 0 0 0 0 0 0 0 0 0 0 0 0 2 6 8 8 7 7 9 11 14 17 18 16 12 8 6 4 2 1 0 0 0 0 0 0 0
0 0 0 0 0 0 0 0 0 0 0 0 0 0 0 0 0 0 0 1 3 5 6 7 7 8 10 13 13 12 10 7 5 4 3 2 1 0 0 0 0 0 0 0
0 0 0 0 0 0 0 0 0 0 0 0 0 0 0 0 0 0 0 0 1 2 3 5 5 5 7 9 8 7 6 5 4 3 2 1 0 0 0 0 0 0 0 0
0 0 0 0 0 0 0 0 0 0 0 0 0 0 0 0 0 0 0 0 0 0 1 2 3 3 3 4 4 5 6 5 4 3 2 0 0 0 0 0 0 0 0 0
0 0 0 0 0 0 0 0 0 0 0 0 0 0 0 0 0 0 0 0 0 0 0 2 3 2 1 1 2 3 4 4 4 3 1 0 0 0 0 0 0 0 0 0
0 0 0 0 0 0 0 0 0 0 0 0 0 0 0 0 0 0 0 0 0 0 0 1 2 1 0 1 1 2 2 3 3 2 1 0 0 0 0 0 0 0 0 0
0 0 0 0 0 0 0 0 0 0 0 0 0 0 0 0 0 0 0 0 0 0 0 1 1 0 0 0 0 1 1 2 2 1 0 0 0 0 0 0 0 0 0 0
0 0 0 0 0 0 0 0 0 1 2 1 1 0 0 0 0 0 0 0 0 0 0 0 0 0 0 0 0 0 1 1 1 0 0 0 0 0 0 0 0 0 0 0
0 0 0 0 0 0 0 0 0 1 2 2 2 2 1 0 0 0 0 0 0 0 0 0 0 0 0 0 0 0 0 0 0 0 0 0 0 0 0 0 0 0 0 0
0 0 0 0 0 0 0 0 0 1 1 2 3 3 2 1 0 0 0 0 0 0 0 0 0 0 0 0 0 0 0 0 0 0 0 0 0 0 0 0 0 0 0 0
0 0 0 0 0 0 0 0 0 0 0 0 1 2 2 1 0 0 1 0 0 0 0 0 0 0 0 0 0 0 0 0 0 0 0 0 0 0 0 0 0 0 0 0
0 0 0 0 0 0 0 0 0 0 0 0 0 0 1 0 0 0 0 0 0 0 0 0 0 0 0 0 0 0 0 0 0 0 0 0 0 0 0 0 0 0 0 0
0 0 0 0 0 0 0 0 0 0 0 0 0 0 0 0 0 0 0 0 0 0 0 0 0 0 0 0 0 0 0 0 0 0 0 0 0 0 0 0 0 0 0 0
0 0 0 0 0 0 0 0 0 0 0 0 0 0 0 0 1 0 0 0 0 0 0 0 0 0 0 0 0 0 0 0 0 0 0 0 0 0 0 0 0 0 0 0
0 0 0 0 0 0 0 0 0 0 0 0 0 0 0 0 0 0 0 0 0 0 0 0 0 0 0 0 0 0 0 0 0 0 0 0 0 0 0 0 0 0 0 0
0 0 0 0 0 0 0 0 0 0 0 0 0 0 0 0 0 0 0 0 0 0 0 0 0 0 0 0 0 0 0 0 0 0 0 0 0 0 0 0 0 0 0 0
0 0 0 0 0 0 0 0 0 0 0 0 0 0 0 0 0 0 0 0 0 0 0 0 0 0 0 0 0 0 0 0 0 0 0 0 0 0 0 0 0 0 0 0
Wind_Speed
3 1 6 11 10 10 6 3 3 3 3 3 2 2 3 3 3 4 4 6 8 7 5 5 6 8 9 7 7 7 7 5 4 3 3 3 2 2 2 2 4 4 4 4
4 8 15 12 8 5 3 3 2 1 2 4 2 1 1 3 4 5 6 6 7 6 5 5 6 6 7 7 6 6 6 5 5 3 3 3 3 2 2 2 2 3 4 4
8 12 10 3 1 1 1 4 4 4 3 4 4 2 1 2 2 3 5 5 6 10 10 10 9 7 7 7 8 8 7 6 5 5 3 3 3 3 2 1 1 1 2 3
7 8 4 3 2 2 1 3 5 6 5 1 2 1 4 4 3 5 6 7 8 9 9 10 10 9 9 8 8 7 7 6 5 5 5 5 4 3 2 2 1 0 1 2
5 3 2 2 1 3 4 4 4 4 5 3 2 1 5 3 5 8 10 10 10 10 11 12 11 10 10 9 8 7 7 6 6 6 6 6 4 3 2 1 1 0 1 0
5 3 2 3 2 4 8 5 5 6 5 3 1 1 5 6 9 10 11 12 12 12 12 11 11 9 8 8 8 8 8 6 6 6 6 7 6 4 3 2 1 0 1 1
6 6 4 1 1 2 5 5 4 6 5 2 3 2 8 8 8 11 13 13 13 13 12 11 11 11 10 10 10 9 9 7 7 7 6 6 6 6 4 3 2 2 1 1
2 7 5 2 4 4 2 7 6 3 3 3 3 4 8 7 6 8 10 11 12 12 12 13 13 13 13 13 11 10 10 8 7 7 6 6 6 4 3 4 3 3 2 2
4 7 5 3 2 4 1 1 6 7 3 1 3 6 8 2 3 6 9 11 13 14 14 14 14 13 13 12 12 12 11 8 8 8 7 6 6 5 5 4 3 3 2 2
6 4 5 2 3 2 3 4 5 5 5 2 3 5 6 5 6 7 9 12 13 14 14 14 14 13 11 11 10 11 11 10 8 8 7 6 6 6 5 4 4 4 3 3
3 4 3 2 2 3 1 1 4 4 5 6 4 8 9 11 10 10 12 13 14 15 15 14 12 11 10 10 10 10 10 8 8 8 7 7 6 6 5 5 4 4 3 4
1 4 0 3 4 2 2 3 5 4 3 5 5 9 7 11 11 11 13 13 13 14 13 12 12 11 11 11 11 10 10 9 9 8 7 7 6 6 5 5 4 4 4 4
1 5 2 6 7 4 1 2 4 5 4 4 5 8 5 6 8 10 11 12 11 11 10 10 11 12 12 11 11 10 10 10 8 8 8 7 6 6 6 6 5 5 5 4
3 4 6 7 8 5 4 4 3 5 3 4 7 8 5 7 9 8 9 10 9 11 12 12 11 11 11 11 11 10 9 9 8 8 8 7 7 7 7 6 6 5 5 5
4 2 3 5 6 4 4 6 5 5 7 8 9 8 11 11 11 10 9 8 9 10 12 13 13 11 10 10 9 9 9 8 8 8 8 8 7 7 6 6 6 6 5 6
3 1 2 4 4 2 5 7 7 5 4 4 3 5 7 6 6 6 7 9 10 12 13 13 12 12 12 12 11 9 9 9 8 9 8 8 7 7 6 6 6 6 6 5
3 3 1 4 6 4 4 5 3 2 4 2 0 5 3 2 7 9 9 10 12 12 12 13 14 14 14 13 12 12 10 9 9 9 8 8 7 7 7 7 6 6 6 6
6 4 3 1 3 3 6 2 2 5 5 5 2 4 2 3 5 5 5 9 11 12 12 13 12 12 11 11 10 10 9 9 9 9 8 8 8 8 7 6 7 7 5 5
5 6 3 2 1 6 4 4 3 2 3 7 6 7 6 4 5 4 2 2 8 11 11 12 12 12 11 11 11 10 9 9 9 9 9 9 8 8 7 7 7 6 5 5
3 4 4 3 3 5 5 6 5 4 1 5 6 8 9 8 4 3 6 3 1 4 6 7 8 8 9 10 10 10 10 9 11 11 10 8 8 8 8 9 7 6 6 7
1 1 2 4 3 6 4 7 5 3 3 3 3 5 7 4 1 4 5 4 2 1 2 5 7 8 9 8 9 9 8 10 10 8 7 7 7 8 8 7 6 6 6 6
5 3 2 2 2 6 3 2 2 5 3 2 1 4 5 3 5 7 7 6 6 6 3 2 4 4 4 6 9 9 9 8 6 6 6 6 6 6 6 6 6 6 6 7
4 6 5 5 6 3 2 3 3 3 3 2 3 4 5 4 5 6 6 7 7 6 5 3 2 2 1 2 6 8 7 4 4 4 4 4 4 5 4 5 6 5 5 6
2 3 4 2 3 3 4 3 2 3 3 2 4 5 6 5 4 5 6 6 6 6 5 5 5 4 2 0 2 4 3 4 4 4 4 3 3 4 4 4 5 5 5 6
4 4 4 2 2 1 4 4 2 3 4 7 8 8 7 7 6 6 6 6 5 6 6 6 6 5 4 3 2 0 2 4 4 3 3 3 4 4 5 5 5 7 7 8
2 6 8 8 9 6 5 3 4 7 7 7 9 9 8 7 7 7 6 5 5 6 6 7 8 7 6 6 5 4 1 2 3 2 2 3 3 3 4 5 7 10 12 15
Wind_Direction
288 69 254 248 228 219 238 198 224 239 187 116 152 186 200 181 177 171 174 167 173 175 175 156 147 139 131 130 132 138 136 142 132 120 118 117 127 137 136 159 152 146 137 123
333 270 254 254 254 242 221 155 199 265 139 118 127 129 192 179 190 187 184 184 176 164 155 156 148 149 145 146 146 146 146 149 145 139 141 143 139 135 138 136 142 153 146 142
223 251 266 276 262 157 177 164 183 171 111 72 97 35 271 254 193 200 202 194 181 173 169 170 168 166 160 161 165 161 159 156 153 142 119 94 77 67 64 75 114 184 160 153
247 265 294 1 2 128 207 163 140 132 114 73 92 229 262 224 226 215 207 197 190 183 175 175 172 174 176 177 172 163 163 158 153 141 130 129 130 135 166 171 182 240 167 163
260 285 338 320 255 110 149 110 87 99 113 83 33 105 273 199 216 216 209 202 198 189 181 183 183 183 181 178 174 170 165 159 154 145 138 128 128 142 143 122 108 4 345 53
258 277 239 241 250 139 133 87 57 49 67 52 297 171 269 216 208 203 205 200 196 191 189 189 188 182 181 179 176 170 164 164 160 151 143 141 143 145 132 121 116 13 13 36
319 307 284 230 48 52 115 93 29 4 17 280 273 222 251 234 216 192 193 195 193 190 189 188 186 184 187 186 183 175 168 168 166 154 151 151 150 147 147 153 153 141 110 102
255 285 270 219 173 182 204 137 156 199 214 269 313 267 262 256 226 194 186 187 188 188 190 191 191 189 191 191 184 175 173 170 168 160 160 158 152 145 147 155 157 158 167 180
202 257 275 250 190 141 133 173 167 131 120 118 279 291 302 282 167 178 181 182 190 191 191 194 193 191 189 186 183 177 172 169 169 167 163 162 160 156 163 166 158 159 172 176
184 241 290 303 52 9 166 168 89 107 140 196 274 269 247 232 208 192 186 190 194 192 192 193 192 190 186 180 176 169 166 168 168 166 168 168 168 168 169 164 172 181 193 191
178 169 311 13 175 222 266 116 117 125 153 152 211 258 225 208 206 199 200 195 194 195 194 193 189 183 173 167 165 165 165 162 165 168 166 162 171 173 171 175 189 194 201 201
215 122 202 262 265 233 203 188 142 143 221 167 175 258 247 199 203 200 205 201 197 195 193 186 176 167 164 165 167 167 168 169 173 171 169 171 174 173 177 189 201 198 203 210
107 102 62 340 333 333 280 213 159 141 139 163 175 256 263 206 207 206 204 201 196 191 184 175 168 167 169 169 169 170 174 177 175 169 170 174 179 181 191 201 205 204 206 214
127 127 164 197 225 237 260 261 207 137 164 213 216 230 242 215 209 207 201 198 188 181 175 171 171 172 172 172 172 173 179 178 172 169 172 180 189 192 198 202 204 207 207 212
92 153 222 229 227 203 239 264 255 226 206 204 232 220 224 210 202 199 192 183 172 170 171 173 173 172 172 172 175 176 176 175 169 168 177 190 194 195 197 202 208 213 215 219
89 128 326 293 277 281 286 281 272 263 256 235 233 244 242 212 190 181 176 167 168 174 177 175 173 172 175 178 180 178 178 177 168 173 186 191 190 193 199 206 212 216 223 227
130 126 94 283 307 3 291 268 257 71 24 43 4 273 303 172 181 182 176 168 170 174 175 177 179 181 183 184 180 182 182 175 173 180 187 188 190 197 206 209 209 216 221 224
135 122 126 283 1 263 249 305 60 100 52 31 19 326 329 237 209 186 173 170 174 175 179 184 186 188 188 184 182 180 173 173 180 187 193 194 194 202 208 208 214 218 216 218
132 134 132 144 233 275 303 348 5 82 42 1 16 4 357 6 53 23 341 189 181 182 184 188 189 187 185 185 182 172 176 180 185 195 201 202 197 201 205 211 219 218 214 223
60 106 134 153 177 235 263 313 314 99 46 334 21 28 12 30 56 309 323 325 210 179 179 181 180 172 181 190 176 174 183 186 198 204 206 202 198 201 208 214 216 214 214 225
70 52 162 177 205 251 270 313 351 122 228 287 22 49 39 40 244 283 324 339 342 60 181 164 160 175 192 180 166 178 184 201 208 203 198 199 202 206 212 217 218 219 224 232
168 158 188 139 198 249 304 7 152 194 206 218 116 73 64 34 356 7 18 13 11 20 19 112 147 181 184 166 167 178 196 206 192 182 190 200 207 213 215 217 228 229 228 237
174 177 174 181 213 251 285 227 213 167 184 207 129 107 92 51 19 19 27 23 17 20 22 33 93 112 78 163 172 187 208 187 166 170 189 206 214 223 222 220 231 237 234 238
224 145 127 154 244 264 274 248 201 185 174 136 98 93 94 93 69 41 39 33 26 23 23 32 54 59 41 66 180 203 189 152 155 179 200 208 219 238 244 240 236 238 243 246
202 144 132 154 193 282 278 249 193 142 108 86 76 80 88 89 72 59 51 38 31 29 30 45 51 45 22 22 28 32 158 153 168 191 211 225 233 243 255 257 249 248 246 242
210 173 170 191 187 176 213 219 139 113 100 96 93 81 72 77 73 63 53 44 43 41 38 42 41 39 32 33 24 6 9 148 167 209 245 255 258 262 265 273 282 266 260 266